| time (UTC) | temp F | wind direction | speed MPH | gust MPH | rain 1hr in | rain 24hr in | rain mn in | humidity % | barometer mb |
| 20260505223047 | 78 | 149 | 3.0 | 12.0 | 0.00 | 0.00 | 0.00 | 86 | 1011.5 |
| 20260505221545 | 78 | 0 | 0.0 | 9.0 | 0.00 | 0.00 | 0.00 | 86 | 1011.6 |
| 20260505220048 | 79 | 162 | 4.0 | 10.0 | 0.00 | 0.00 | 0.00 | 85 | 1011.6 |
| 20260505214603 | 79 | 174 | 6.0 | 13.0 | 0.00 | 0.00 | 0.00 | 85 | 1011.7 |
| 20260505213059 | 79 | 144 | 6.0 | 11.0 | 0.00 | 0.00 | 0.00 | 85 | 1011.8 |
| 20260505211544 | 79 | 187 | 4.0 | 13.0 | 0.00 | 0.00 | 0.00 | 84 | 1011.9 |
| 20260505210058 | 80 | 140 | 6.0 | 15.0 | 0.00 | 0.00 | 0.00 | 84 | 1012.0 |
| 20260505204558 | 80 | 163 | 2.0 | 11.0 | 0.00 | 0.00 | 0.00 | 84 | 1011.9 |
| 20260505203054 | 79 | 0 | 3.0 | 10.0 | 0.00 | 0.00 | 0.00 | 84 | 1012.1 |
| 20260505201554 | 79 | 149 | 5.0 | 17.0 | 0.00 | 0.00 | 0.00 | 83 | 1012.2 |
| 20260505200100 | 80 | 172 | 4.0 | 11.0 | 0.00 | 0.00 | 0.00 | 84 | 1012.3 |
| 20260505194554 | 79 | 0 | 2.0 | 12.0 | 0.00 | 0.00 | 0.00 | 84 | 1012.4 |
| 20260505193051 | 79 | 0 | 2.0 | 9.0 | 0.00 | 0.00 | 0.00 | 84 | 1012.5 |
| 20260505191544 | 79 | 0 | 0.0 | 10.0 | 0.00 | 0.00 | 0.00 | 85 | 1012.5 |
| 20260505190050 | 79 | 0 | 0.0 | 9.0 | 0.00 | 0.00 | 0.00 | 84 | 1012.7 |
| 20260505184548 | 79 | 0 | 0.0 | 10.0 | 0.00 | 0.00 | 0.00 | 83 | 1012.7 |
| 20260505183046 | 79 | 0 | 0.0 | 10.0 | 0.00 | 0.00 | 0.00 | 83 | 1012.8 |
| 20260505181546 | 80 | 170 | 4.0 | 10.0 | 0.00 | 0.00 | 0.00 | 83 | 1012.7 |
| 20260505180103 | 80 | 157 | 5.0 | 16.0 | 0.00 | 0.00 | 0.00 | 82 | 1012.8 |
| 20260505174600 | 80 | 172 | 0.0 | 10.0 | 0.00 | 0.00 | 0.00 | 83 | 1012.6 |
| 20260505173047 | 80 | 192 | 2.0 | 12.0 | 0.00 | 0.00 | 0.00 | 83 | 1012.8 |
| 20260505171546 | 80 | 179 | 1.0 | 15.0 | 0.00 | 0.00 | 0.00 | 84 | 1012.8 |
| 20260505170047 | 79 | 178 | 0.0 | 12.0 | 0.00 | 0.00 | 0.00 | 84 | 1013.2 |
| 20260505164550 | 79 | 0 | 1.0 | 8.0 | 0.00 | 0.00 | 0.00 | 84 | 1013.2 |
| 20260505163052 | 78 | 0 | 3.0 | 11.0 | 0.00 | 0.00 | 0.00 | 84 | 1013.2 |
| 20260505161548 | 77 | 164 | 2.0 | 14.0 | 0.00 | 0.00 | 0.00 | 84 | 1013.3 |
| 20260505153044 | 76 | 0 | 0.0 | 14.0 | 0.00 | 0.00 | 0.00 | 85 | 1013.3 |
| 20260505151548 | 76 | 0 | 0.0 | 15.0 | 0.00 | 0.00 | 0.00 | 85 | 1013.4 |
| 20260505124611 | 67 | 0 | 0.0 | 0.0 | 0.00 | 0.00 | 0.00 | 90 | 1013.1 |
| 20260505123106 | 66 | 0 | 0.0 | 0.0 | 0.00 | 0.00 | 0.00 | 89 | 1012.8 |
| 20260505121549 | 65 | 0 | 0.0 | 0.0 | 0.00 | 0.00 | 0.00 | 89 | 1012.7 |
| 20260505120049 | 64 | 0 | 0.0 | 0.0 | 0.00 | 0.00 | 0.00 | 89 | 1012.6 |
| 20260505114549 | 64 | 0 | 0.0 | 0.0 | 0.00 | 0.00 | 0.00 | 89 | 1012.6 |
| 20260505113101 | 64 | 0 | 0.0 | 0.0 | 0.00 | 0.00 | 0.00 | 89 | 1012.8 |
| 20260505111549 | 63 | 0 | 0.0 | 0.0 | 0.00 | 0.00 | 0.00 | 88 | 1012.7 |
| 20260505101549 | 63 | 0 | 0.0 | 0.0 | 0.00 | 0.00 | 0.00 | 87 | 1012.6 |
| 20260505100053 | 63 | 0 | 0.0 | 0.0 | 0.00 | 0.00 | 0.00 | 87 | 1012.7 |
| 20260505094549 | 63 | 0 | 0.0 | 0.0 | 0.00 | 0.00 | 0.00 | 86 | 1013.0 |
| 20260505093048 | 63 | 0 | 0.0 | 0.0 | 0.00 | 0.00 | 0.00 | 85 | 1012.9 |
| 20260505091604 | 63 | 0 | 0.0 | 0.0 | 0.00 | 0.00 | 0.00 | 85 | 1012.9 |
| 20260505090046 | 63 | 0 | 0.0 | 0.0 | 0.00 | 0.00 | 0.00 | 84 | 1012.8 |
| 20260505084541 | 64 | 0 | 0.0 | 0.0 | 0.00 | 0.00 | 0.00 | 85 | 1012.7 |
| 20260505083050 | 64 | 0 | 0.0 | 0.0 | 0.00 | 0.00 | 0.00 | 85 | 1013.0 |
| 20260505081557 | 64 | 0 | 0.0 | 0.0 | 0.00 | 0.00 | 0.00 | 85 | 1012.8 |
| 20260505074546 | 64 | 0 | 0.0 | 0.0 | 0.00 | 0.00 | 0.00 | 84 | 1013.1 |
| 20260505073051 | 64 | 0 | 0.0 | 0.0 | 0.00 | 0.00 | 0.00 | 83 | 1013.0 |
| 20260505071553 | 64 | 0 | 0.0 | 0.0 | 0.00 | 0.00 | 0.00 | 83 | 1013.1 |
| 20260505070051 | 63 | 0 | 0.0 | 0.0 | 0.00 | 0.00 | 0.00 | 82 | 1013.5 |
| 20260505064545 | 63 | 0 | 0.0 | 0.0 | 0.00 | 0.00 | 0.00 | 82 | 1013.7 |
| 20260505063104 | 63 | 0 | 0.0 | 0.0 | 0.00 | 0.00 | 0.00 | 82 | 1013.7 |
| 20260505061620 | 63 | 0 | 0.0 | 0.0 | 0.00 | 0.00 | 0.00 | 81 | 1014.0 |
| 20260505060100 | 63 | 0 | 0.0 | 0.0 | 0.00 | 0.00 | 0.00 | 81 | 1014.2 |
| 20260505054548 | 63 | 0 | 0.0 | 0.0 | 0.00 | 0.00 | 0.00 | 82 | 1014.2 |
| 20260505053053 | 63 | 0 | 0.0 | 0.0 | 0.00 | 0.00 | 0.00 | 81 | 1014.3 |
| 20260505051606 | 63 | 0 | 0.0 | 0.0 | 0.00 | 0.00 | 0.00 | 80 | 1014.3 |
| 20260505041550 | 64 | 0 | 0.0 | 0.0 | 0.00 | 0.00 | 0.00 | 78 | 1014.6 |
| 20260505040049 | 64 | 0 | 0.0 | 0.0 | 0.00 | 0.00 | 0.00 | 77 | 1014.8 |
| 20260505034548 | 64 | 0 | 0.0 | 0.0 | 0.00 | 0.00 | 0.00 | 77 | 1014.7 |
| 20260505033046 | 65 | 0 | 0.0 | 0.0 | 0.00 | 0.00 | 0.00 | 76 | 1014.6 |
| 20260505031556 | 65 | 0 | 0.0 | 0.0 | 0.00 | 0.00 | 0.00 | 76 | 1014.8 |
| 20260505030052 | 66 | 0 | 0.0 | 0.0 | 0.00 | 0.00 | 0.00 | 76 | 1014.5 |
| 20260505024553 | 66 | 0 | 0.0 | 0.0 | 0.00 | 0.00 | 0.00 | 75 | 1014.6 |
| 20260505023051 | 66 | 0 | 0.0 | 0.0 | 0.00 | 0.00 | 0.00 | 75 | 1014.3 |
| 20260505021539 | 66 | 0 | 0.0 | 0.0 | 0.00 | 0.00 | 0.00 | 75 | 1014.2 |
| 20260505020059 | 67 | 0 | 0.0 | 0.0 | 0.00 | 0.00 | 0.00 | 74 | 1014.4 |
| 20260505014552 | 67 | 0 | 0.0 | 0.0 | 0.00 | 0.00 | 0.00 | 73 | 1014.3 |
| 20260505013103 | 67 | 0 | 0.0 | 5.0 | 0.00 | 0.00 | 0.00 | 73 | 1014.2 |
| 20260505011546 | 68 | 0 | 1.0 | 5.0 | 0.00 | 0.00 | 0.00 | 72 | 1014.3 |
| 20260505010110 | 69 | 0 | 0.0 | 5.0 | 0.00 | 0.00 | 0.00 | 71 | 1014.1 |
| 20260505004548 | 69 | 165 | 2.0 | 6.0 | 0.00 | 0.00 | 0.00 | 70 | 1014.4 |
| 20260505003054 | 70 | 160 | 3.0 | 5.0 | 0.00 | 0.00 | 0.00 | 70 | 1014.4 |
| 20260505001553 | 71 | 164 | 2.0 | 9.0 | 0.00 | 0.00 | 0.00 | 69 | 1014.3 |
| 20260505000047 | 72 | 136 | 1.0 | 9.0 | 0.00 | 0.00 | 0.00 | 68 | 1014.4 |
| 20260504234548 | 72 | 158 | 4.0 | 10.0 | 0.00 | 0.00 | 0.00 | 67 | 1014.5 |
| 20260504233106 | 73 | 153 | 1.0 | 6.0 | 0.00 | 0.00 | 0.00 | 67 | 1014.7 |
| 20260504231550 | 73 | 153 | 2.0 | 7.0 | 0.00 | 0.00 | 0.00 | 67 | 1015.0 |
| 20260504230056 | 74 | 161 | 4.0 | 11.0 | 0.00 | 0.00 | 0.00 | 66 | 1015.1 |
| 20260504224551 | 74 | 155 | 3.0 | 10.0 | 0.00 | 0.00 | 0.00 | 65 | 1015.1 |